Add date Part number Description Manufacture PDF
07-13-2015 MTD1361 SHINDENGEN Stepper Motor Driver ICs Shindengen Electric MTD1361 datasheet
07-13-2015 KPDP4212QG PLASMA TV SERVICE MANUAL KPDP4212QG KONKA KPDP4212QG datasheet
07-13-2015 74C915 MM74C915 Page 1 of 4 MM74C915 Pa National Semiconductor 74C915 datasheet
07-13-2015 54C915 MM74C915 Page 1 of 4 MM74C915 Pa National Semiconductor 54C915 datasheet
07-13-2015 MM54C915 MM74C915 Page 1 of 4 MM74C915 Pa National Semiconductor MM54C915 datasheet
07-13-2015 MM74C915 MM74C915 Page 1 of 4 MM74C915 Pa National Semiconductor MM74C915 datasheet
07-13-2015 ATA5771C ATA5771C/73C/74C UHF ASK/FSK Transm ATMEL ATA5771C datasheet
07-13-2015 ATA5773C ATA5771C/73C/74C UHF ASK/FSK Transm ATMEL ATA5773C datasheet
07-13-2015 ATA5774C ATA5771C/73C/74C UHF ASK/FSK Transm ATMEL ATA5774C datasheet
07-13-2015 STPS2545CT-Y STPS2545CT-Y Automotive power Scho STMicroelectronics STPS2545CT-Y datasheet
07-13-2015 SM2340-130xy Stepper Motor Wiring Revision E In AMCI SM2340-130xy datasheet
07-13-2015 SM2340-240xy Stepper Motor Wiring Revision E In AMCI SM2340-240xy datasheet
07-13-2015 57BYGH001 CHANGZHOU HETAI ELECTRIC MOTORS & E HETAI ELECTRIC 57BYGH001 datasheet
07-13-2015 57BYGH013 CHANGZHOU HETAI ELECTRIC MOTORS & E HETAI ELECTRIC 57BYGH013 datasheet
07-13-2015 57BYGH201 CHANGZHOU HETAI ELECTRIC MOTORS & E HETAI ELECTRIC 57BYGH201 datasheet
07-13-2015 57BYGH206 CHANGZHOU HETAI ELECTRIC MOTORS & E HETAI ELECTRIC 57BYGH206 datasheet
07-13-2015 57BYGH218 CHANGZHOU HETAI ELECTRIC MOTORS & E HETAI ELECTRIC 57BYGH218 datasheet
07-13-2015 57BYGH436 CHANGZHOU HETAI ELECTRIC MOTORS & E HETAI ELECTRIC 57BYGH436 datasheet
07-13-2015 57BYGH420 CHANGZHOU HETAI ELECTRIC MOTORS & E HETAI ELECTRIC 57BYGH420 datasheet
07-13-2015 57BYGH502 CHANGZHOU HETAI ELECTRIC MOTORS & E HETAI ELECTRIC 57BYGH502 datasheet
07-13-2015 57BYGH506 CHANGZHOU HETAI ELECTRIC MOTORS & E HETAI ELECTRIC 57BYGH506 datasheet
07-13-2015 57BYGH603 CHANGZHOU HETAI ELECTRIC MOTORS & E HETAI ELECTRIC 57BYGH603 datasheet
07-13-2015 57BYGH633 CHANGZHOU HETAI ELECTRIC MOTORS & E HETAI ELECTRIC 57BYGH633 datasheet
07-13-2015 57BYGH800 CHANGZHOU HETAI ELECTRIC MOTORS & E HETAI ELECTRIC 57BYGH800 datasheet
07-13-2015 57BYGH115-003 CHANGZHOU HETAI ELECTRIC MOTORS & E HETAI ELECTRIC 57BYGH115-003 datasheet
07-13-2015 57BYGH115-007 CHANGZHOU HETAI ELECTRIC MOTORS & E HETAI ELECTRIC 57BYGH115-007 datasheet
07-13-2015 57BYGH001 Hybrid Stepper Motor 57BYGH Series Promoco 57BYGH001 datasheet
07-13-2015 57BYGH013 Hybrid Stepper Motor 57BYGH Series Promoco 57BYGH013 datasheet
07-13-2015 57BYGH201 Hybrid Stepper Motor 57BYGH Series Promoco 57BYGH201 datasheet
07-13-2015 57BYGH206 Hybrid Stepper Motor 57BYGH Series Promoco 57BYGH206 datasheet
07-13-2015 57BYGH218 Hybrid Stepper Motor 57BYGH Series Promoco 57BYGH218 datasheet
07-13-2015 57BYGH436 Hybrid Stepper Motor 57BYGH Series Promoco 57BYGH436 datasheet
07-13-2015 57BYGH420 Hybrid Stepper Motor 57BYGH Series Promoco 57BYGH420 datasheet
07-13-2015 57BYGH502 Hybrid Stepper Motor 57BYGH Series Promoco 57BYGH502 datasheet
07-13-2015 57BYGH506 Hybrid Stepper Motor 57BYGH Series Promoco 57BYGH506 datasheet
07-13-2015 57BYGH603 Hybrid Stepper Motor 57BYGH Series Promoco 57BYGH603 datasheet
07-13-2015 57BYGH633 Hybrid Stepper Motor 57BYGH Series Promoco 57BYGH633 datasheet
07-13-2015 57BYGH800 Hybrid Stepper Motor 57BYGH Series Promoco 57BYGH800 datasheet
07-13-2015 57BYGH115-003 Hybrid Stepper Motor 57BYGH Series Promoco 57BYGH115-003 datasheet
07-13-2015 57BYGH115-007 Hybrid Stepper Motor 57BYGH Series Promoco 57BYGH115-007 datasheet
07-13-2015 PS2561D-1 PHOTOCOUPLER PS2561D-1,PS2561DL-1 P CEL PS2561D-1 datasheet
07-13-2015 PS2561DL-1 PHOTOCOUPLER PS2561D-1,PS2561DL-1 P CEL PS2561DL-1 datasheet
07-13-2015 PS2561DL1-1 PHOTOCOUPLER PS2561D-1,PS2561DL-1 P CEL PS2561DL1-1 datasheet
07-13-2015 PS2561DL2-1 PHOTOCOUPLER PS2561D-1,PS2561DL-1 P CEL PS2561DL2-1 datasheet
07-13-2015 Ai1001S 1 A1 PROs A1 PROs Description The A1 PROs Ai1001S datasheet
07-13-2015 Ai1002 1 A1 PROs A1 PROs Ver1.0 Ai1002 Ve A1 PROs Ai1002 datasheet
07-13-2015 BTA16-600B TM HPM HAOPIN MICROELECTRONICS CO., HAOPIN MICROELECTRONICS BTA16-600B datasheet
07-13-2015 BTA16-600B 16A TRIACS Product specification B ARK BTA16-600B datasheet
07-13-2015 ROS-EDR-9668-3RE Engineering Development Model Volta Mini-Circuits ROS-EDR-9668-3RE datasheet
07-13-2015 MAX9665 19-5000; Rev 4; 7/10 MAX9665/MAX96 Maxim MAX9665 datasheet
07-13-2015 MAX9666 19-5000; Rev 4; 7/10 MAX9665/MAX96 Maxim MAX9666 datasheet
07-13-2015 MAX9667 19-5000; Rev 4; 7/10 MAX9665/MAX96 Maxim MAX9667 datasheet
07-13-2015 MMBT8099 SMD General Purpose Transistor (NPN TAITRON MMBT8099 datasheet
07-13-2015 MAX9668 MAX9668 LCD Gamma Buffer Descriptio ETC MAX9668 datasheet
07-13-2015 MG15N2YK1 ETC MG15N2YK1 datasheet
07-13-2015 MG25M2YK1 ETC MG25M2YK1 datasheet
07-13-2015 MG25N2YK1 ETC MG25N2YK1 datasheet
07-13-2015 MG30G2YL1 ETC MG30G2YL1 datasheet
07-13-2015 MG50G2YL1 ETC MG50G2YL1 datasheet
07-13-2015 MG50M2YK1 ETC MG50M2YK1 datasheet
07-13-2015 MG50N2YK1 ETC MG50N2YK1 datasheet
07-13-2015 MG50Q2YK1 ETC MG50Q2YK1 datasheet
07-13-2015 MG75G2YL1 ETC MG75G2YL1 datasheet
07-13-2015 MG75M2YK1 ETC MG75M2YK1 datasheet
07-13-2015 MG75Q2YK1 ETC MG75Q2YK1 datasheet
07-13-2015 MG100H2YL1 ETC MG100H2YL1 datasheet
07-13-2015 MG100M2YK1 ETC MG100M2YK1 datasheet
07-13-2015 MG100Q2YK1 ETC MG100Q2YK1 datasheet
07-13-2015 MG150M2YK1 ETC MG150M2YK1 datasheet
07-13-2015 MG150Q2YK1 ETC MG150Q2YK1 datasheet
07-13-2015 MG200M1UK1 ETC MG200M1UK1 datasheet
07-13-2015 MG200Q1UK1 ETC MG200Q1UK1 datasheet
07-13-2015 MG300M1UK1 ETC MG300M1UK1 datasheet
07-13-2015 MG300Q1UK1 ETC MG300Q1UK1 datasheet
07-13-2015 STW9NK95Z STW9NK95Z N-channel 950 V - 1.15 STMicroelectronics STW9NK95Z datasheet
07-13-2015 STBP112 STBP112 Overvoltage protection dev STMicroelectronics STBP112 datasheet
07-13-2015 CQ-C1505W Before Installation/Перед мо Panasonic CQ-C1505W datasheet
07-13-2015 CQ-C1505W English WMA MP3 CD Player/Receiver Panasonic CQ-C1505W datasheet
07-13-2015 AOZ1363DI AOZ1363DI 16V High Current Load Swi Alpha & Omega Semiconductors AOZ1363DI datasheet


The site has been moved : DatasheetsPDF.com
Since 2005 - HOME - Link US - All - Contact Us -